Wetterdaten: Donnerstag, 09.10.2014
Datum Zeit Temperatur Luftfeuchte Luftdruck Regen Wind Richtung Richtung Taupunkt Windchill Windben
09.10.2014 00:00 13,2 C 70 % 1014,2 hPa 0,0 l/m 0,0 km/h (0 Bft) S-SO 157 7,9 C 22,8 C 0,0 km/h (0 Bft)
09.10.2014 00:10 13,2 C 69 % 1014,2 hPa 0,0 l/m 0,0 km/h (0 Bft) S-SO 157 7,6 C 22,8 C 0,0 km/h (0 Bft)
09.10.2014 00:20 13,8 C 66 % 1014,2 hPa 0,0 l/m 0,0 km/h (0 Bft) S-SO 157 7,6 C 22,8 C 0,0 km/h (0 Bft)
09.10.2014 00:30 13,7 C 65 % 1014,1 hPa 0,0 l/m 0,0 km/h (0 Bft) S-SO 157 7,2 C 22,8 C 0,0 km/h (0 Bft)
09.10.2014 00:40 13,3 C 66 % 1014,1 hPa 0,0 l/m 0,0 km/h (0 Bft) S-SO 157 7,1 C 22,8 C 0,0 km/h (0 Bft)
09.10.2014 00:50 13,8 C 66 % 1014,2 hPa 0,0 l/m 0,0 km/h (0 Bft) S-SO 157 7,6 C 22,8 C 0,0 km/h (0 Bft)
09.10.2014 01:00 13,8 C 65 % 1014,2 hPa 0,0 l/m 0,0 km/h (0 Bft) S-SO 157 7,3 C 22,8 C 0,0 km/h (0 Bft)
09.10.2014 01:10 14,3 C 62 % 1014,1 hPa 0,0 l/m 0,0 km/h (0 Bft) S-SO 157 7,1 C 22,8 C 0,0 km/h (0 Bft)
09.10.2014 01:20 13,9 C 62 % 1014,1 hPa 0,0 l/m 0,0 km/h (0 Bft) S-SO 157 6,7 C 22,8 C 0,0 km/h (0 Bft)
09.10.2014 01:30 13,1 C 62 % 1014,1 hPa 0,0 l/m 0,0 km/h (0 Bft) S-SO 157 6,0 C 22,8 C 0,0 km/h (0 Bft)
09.10.2014 01:40 12,7 C 66 % 1014,1 hPa 0,0 l/m 0,0 km/h (0 Bft) S-SO 157 6,5 C 22,8 C 0,0 km/h (0 Bft)
09.10.2014 01:48 12,9 C 65 % 1014,0 hPa 0,0 l/m 0,0 km/h (0 Bft) S-SO 157 6,5 C 22,8 C 0,0 km/h (0 Bft)
09.10.2014 01:50 12,9 C 65 % 1014,0 hPa 0,0 l/m 0,0 km/h (0 Bft) S-SO 157 6,5 C 22,8 C 0,0 km/h (0 Bft)
09.10.2014 02:00 11,4 C 70 % 1014,0 hPa 0,0 l/m 0,0 km/h (0 Bft) S-SO 157 6,1 C 22,8 C 0,0 km/h (0 Bft)
09.10.2014 02:10 12,4 C 69 % 1014,1 hPa 0,0 l/m 0,0 km/h (0 Bft) S-SO 157 6,9 C 22,8 C 0,0 km/h (0 Bft)
09.10.2014 02:20 12,3 C 65 % 1014,1 hPa 0,0 l/m 0,0 km/h (0 Bft) S-SO 157 5,9 C 22,8 C 0,0 km/h (0 Bft)
09.10.2014 02:30 11,1 C 69 % 1014,1 hPa 0,0 l/m 0,0 km/h (0 Bft) S-SO 157 5,6 C 22,8 C 0,0 km/h (0 Bft)
09.10.2014 02:40 13,0 C 63 % 1014,1 hPa 0,0 l/m 0,0 km/h (0 Bft) S-SO 157 6,1 C 22,8 C 0,0 km/h (0 Bft)
09.10.2014 02:50 13,5 C 60 % 1014,1 hPa 0,0 l/m 0,0 km/h (0 Bft) S-SO 157 5,9 C 22,8 C 0,0 km/h (0 Bft)
09.10.2014 03:00 14,2 C 58 % 1014,1 hPa 0,0 l/m 0,0 km/h (0 Bft) S-SO 157 6,1 C 22,8 C 0,0 km/h (0 Bft)
09.10.2014 03:10 13,9 C 58 % 1013,9 hPa 0,0 l/m 0,0 km/h (0 Bft) S-SO 157 5,8 C 22,8 C 0,0 km/h (0 Bft)
09.10.2014 03:20 14,2 C 57 % 1013,9 hPa 0,0 l/m 0,0 km/h (0 Bft) S-SO 157 5,8 C 22,8 C 0,0 km/h (0 Bft)
09.10.2014 03:30 13,9 C 57 % 1013,9 hPa 0,0 l/m 0,0 km/h (0 Bft) S-SO 157 5,5 C 22,8 C 0,0 km/h (0 Bft)
09.10.2014 03:40 13,7 C 59 % 1013,9 hPa 0,0 l/m 0,0 km/h (0 Bft) S-SO 157 5,8 C 22,8 C 0,0 km/h (0 Bft)
09.10.2014 03:50 13,3 C 59 % 1013,8 hPa 0,0 l/m 0,0 km/h (0 Bft) S-SO 157 5,5 C 22,8 C 0,0 km/h (0 Bft)
09.10.2014 04:00 12,7 C 59 % 1013,8 hPa 0,0 l/m 0,0 km/h (0 Bft) S-SO 157 4,9 C 22,8 C 0,0 km/h (0 Bft)
09.10.2014 04:10 12,9 C 60 % 1013,8 hPa 0,0 l/m 0,0 km/h (0 Bft) S-SO 157 5,3 C 22,8 C 0,0 km/h (0 Bft)
09.10.2014 04:20 13,3 C 59 % 1013,8 hPa 0,0 l/m 0,0 km/h (0 Bft) S-SO 157 5,5 C 22,8 C 0,0 km/h (0 Bft)
09.10.2014 04:30 13,0 C 59 % 1013,8 hPa 0,0 l/m 0,0 km/h (0 Bft) S-SO 157 5,2 C 22,8 C 0,0 km/h (0 Bft)
09.10.2014 04:40 13,2 C 59 % 1013,8 hPa 0,0 l/m 0,0 km/h (0 Bft) S-SO 157 5,4 C 22,8 C 0,0 km/h (0 Bft)
09.10.2014 04:48 13,3 C 59 % 1013,7 hPa 0,0 l/m 0,0 km/h (0 Bft) S-SO 157 5,5 C 22,8 C 0,0 km/h (0 Bft)
09.10.2014 04:50 13,3 C 59 % 1013,7 hPa 0,0 l/m 0,0 km/h (0 Bft) S-SO 157 5,5 C 22,8 C 0,0 km/h (0 Bft)
09.10.2014 05:00 13,1 C 59 % 1013,7 hPa 0,0 l/m 0,0 km/h (0 Bft) S-SO 157 5,3 C 22,8 C 0,0 km/h (0 Bft)
09.10.2014 05:10 13,7 C 58 % 1013,4 hPa 0,0 l/m 0,0 km/h (0 Bft) S-SO 157 5,6 C 22,8 C 0,0 km/h (0 Bft)
09.10.2014 05:20 13,5 C 58 % 1013,4 hPa 0,0 l/m 0,0 km/h (0 Bft) S-SO 157 5,4 C 22,8 C 0,0 km/h (0 Bft)
09.10.2014 05:30 13,1 C 59 % 1013,8 hPa 0,0 l/m 0,0 km/h (0 Bft) S-SO 157 5,3 C 22,8 C 0,0 km/h (0 Bft)
09.10.2014 05:40 13,6 C 58 % 1013,8 hPa 0,0 l/m 0,0 km/h (0 Bft) S-SO 157 5,5 C 22,8 C 0,0 km/h (0 Bft)
09.10.2014 05:50 13,5 C 57 % 1013,9 hPa 0,0 l/m 0,0 km/h (0 Bft) S-SO 157 5,2 C 22,8 C 0,0 km/h (0 Bft)
09.10.2014 06:00 13,0 C 58 % 1013,9 hPa 0,0 l/m 0,0 km/h (0 Bft) S-SO 157 4,9 C 22,8 C 0,0 km/h (0 Bft)
09.10.2014 06:10 13,5 C 57 % 1014,2 hPa 0,0 l/m 0,0 km/h (0 Bft) S-SO 157 5,2 C 22,8 C 0,0 km/h (0 Bft)
09.10.2014 06:20 13,2 C 57 % 1014,2 hPa 0,0 l/m 0,0 km/h (0 Bft) S-SO 157 4,9 C 22,8 C 0,0 km/h (0 Bft)
09.10.2014 06:30 14,7 C 53 % 1014,3 hPa 0,0 l/m 0,0 km/h (0 Bft) S-SO 157 5,2 C 22,8 C 0,0 km/h (0 Bft)
09.10.2014 06:40 14,7 C 51 % 1014,3 hPa 0,0 l/m 0,0 km/h (0 Bft) S-SO 157 4,7 C 22,8 C 0,0 km/h (0 Bft)
09.10.2014 06:50 14,8 C 50 % 1014,3 hPa 0,0 l/m 0,0 km/h (0 Bft) S-SO 157 4,5 C 22,8 C 0,0 km/h (0 Bft)
09.10.2014 07:00 15,3 C 48 % 1014,3 hPa 0,0 l/m 0,0 km/h (0 Bft) S-SO 157 4,4 C 22,8 C 0,0 km/h (0 Bft)
09.10.2014 07:10 15,8 C 47 % 1014,2 hPa 0,0 l/m 0,0 km/h (0 Bft) S-SO 157 4,5 C 22,8 C 0,0 km/h (0 Bft)
09.10.2014 07:20 13,8 C 53 % 1014,2 hPa 0,0 l/m 0,0 km/h (0 Bft) S-SO 157 4,4 C 22,8 C 0,0 km/h (0 Bft)
09.10.2014 07:30 13,5 C 55 % 1014,5 hPa 0,0 l/m 0,0 km/h (0 Bft) S-SO 157 4,6 C 22,8 C 0,0 km/h (0 Bft)
09.10.2014 07:40 13,4 C 55 % 1014,5 hPa 0,0 l/m 0,0 km/h (0 Bft) S-SO 157 4,5 C 22,8 C 0,0 km/h (0 Bft)
09.10.2014 07:48 13,0 C 56 % 1014,6 hPa 0,0 l/m 0,0 km/h (0 Bft) S-SO 157 4,4 C 22,8 C 0,0 km/h (0 Bft)
09.10.2014 07:50 13,0 C 56 % 1014,6 hPa 0,0 l/m 0,0 km/h (0 Bft) S-SO 157 4,4 C 22,8 C 0,0 km/h (0 Bft)
09.10.2014 08:00 13,0 C 57 % 1014,6 hPa 0,0 l/m 0,0 km/h (0 Bft) S-SO 157 4,7 C 22,8 C 0,0 km/h (0 Bft)
09.10.2014 08:10 12,9 C 57 % 1015,1 hPa 0,0 l/m 0,0 km/h (0 Bft) S-SO 157 4,6 C 22,8 C 0,0 km/h (0 Bft)
09.10.2014 08:20 13,5 C 55 % 1015,1 hPa 0,0 l/m 0,0 km/h (0 Bft) S-SO 157 4,6 C 22,8 C 0,0 km/h (0 Bft)
09.10.2014 08:30 12,4 C 58 % 1015,1 hPa 0,0 l/m 0,0 km/h (0 Bft) S-SO 157 4,4 C 22,8 C 0,0 km/h (0 Bft)
09.10.2014 08:40 12,6 C 59 % 1015,1 hPa 0,0 l/m 0,0 km/h (0 Bft) S-SO 157 4,8 C 22,8 C 0,0 km/h (0 Bft)
09.10.2014 08:50 12,2 C 62 % 1015,3 hPa 0,0 l/m 0,0 km/h (0 Bft) S-SO 157 5,1 C 22,8 C 0,0 km/h (0 Bft)
09.10.2014 09:00 11,9 C 64 % 1015,3 hPa 0,0 l/m 0,0 km/h (0 Bft) S-SO 157 5,3 C 22,8 C 0,0 km/h (0 Bft)
09.10.2014 09:10 12,1 C 65 % 1015,3 hPa 0,0 l/m 0,0 km/h (0 Bft) S-SO 157 5,7 C 22,8 C 0,0 km/h (0 Bft)
09.10.2014 09:20 12,4 C 66 % 1015,3 hPa 0,0 l/m 0,0 km/h (0 Bft) S-SO 157 6,2 C 22,8 C 0,0 km/h (0 Bft)
09.10.2014 09:30 13,0 C 65 % 1015,4 hPa 0,0 l/m 0,0 km/h (0 Bft) S-SO 157 6,6 C 22,8 C 0,0 km/h (0 Bft)
09.10.2014 09:40 13,3 C 65 % 1015,4 hPa 0,0 l/m 0,0 km/h (0 Bft) S-SO 157 6,9 C 22,8 C 0,0 km/h (0 Bft)
09.10.2014 09:50 15,0 C 58 % 1015,4 hPa 0,0 l/m 0,0 km/h (0 Bft) S-SO 157 6,8 C 22,8 C 0,0 km/h (0 Bft)
09.10.2014 10:00 15,3 C 57 % 1015,4 hPa 0,0 l/m 0,0 km/h (0 Bft) S-SO 157 6,8 C 22,8 C 0,0 km/h (0 Bft)
09.10.2014 10:10 16,2 C 58 % 1015,8 hPa 0,0 l/m 0,0 km/h (0 Bft) S-SO 157 7,9 C 22,8 C 0,0 km/h (0 Bft)
09.10.2014 10:20 17,1 C 53 % 1015,8 hPa 0,0 l/m 0,0 km/h (0 Bft) S-SO 157 7,4 C 22,8 C 0,0 km/h (0 Bft)
09.10.2014 10:30 17,9 C 49 % 1015,6 hPa 0,0 l/m 0,0 km/h (0 Bft) S-SO 157 7,0 C 22,8 C 0,0 km/h (0 Bft)
09.10.2014 10:40 17,6 C 49 % 1015,6 hPa 0,0 l/m 0,0 km/h (0 Bft) S-SO 157 6,8 C 22,8 C 0,0 km/h (0 Bft)
09.10.2014 10:48 17,7 C 52 % 1015,4 hPa 0,0 l/m 0,0 km/h (0 Bft) S-SO 157 7,7 C 22,8 C 0,0 km/h (0 Bft)
09.10.2014 10:50 17,7 C 52 % 1015,4 hPa 0,0 l/m 0,0 km/h (0 Bft) S-SO 157 7,7 C 22,8 C 0,0 km/h (0 Bft)
09.10.2014 11:00 18,3 C 49 % 1015,4 hPa 0,0 l/m 0,0 km/h (0 Bft) S-SO 157 7,4 C 22,8 C 0,0 km/h (0 Bft)
09.10.2014 11:10 19,7 C 46 % 1015,5 hPa 0,0 l/m 0,0 km/h (0 Bft) S-SO 157 7,8 C 22,8 C 0,0 km/h (0 Bft)
09.10.2014 11:20 21,6 C 39 % 1015,5 hPa 0,0 l/m 0,0 km/h (0 Bft) S-SO 157 7,0 C 22,8 C 0,0 km/h (0 Bft)
09.10.2014 11:30 23,7 C 35 % 1015,6 hPa 0,0 l/m 0,0 km/h (0 Bft) S-SO 157 7,3 C 22,8 C 0,0 km/h (0 Bft)
09.10.2014 11:40 24,6 C 33 % 1015,6 hPa 0,0 l/m 0,0 km/h (0 Bft) S-SO 157 7,2 C 22,8 C 0,0 km/h (0 Bft)
09.10.2014 11:50 25,7 C 31 % 1015,6 hPa 0,0 l/m 0,0 km/h (0 Bft) S-SO 157 7,3 C 22,8 C 0,0 km/h (0 Bft)
09.10.2014 12:00 25,5 C 34 % 1015,6 hPa 0,0 l/m 0,0 km/h (0 Bft) S-SO 157 8,5 C 22,8 C 0,0 km/h (0 Bft)
09.10.2014 12:10 25,3 C 37 % 1015,8 hPa 0,0 l/m 0,0 km/h (0 Bft) S-SO 157 9,6 C 22,8 C 0,0 km/h (0 Bft)
09.10.2014 12:20 25,8 C 37 % 1015,8 hPa 0,0 l/m 0,0 km/h (0 Bft) S-SO 157 10,0 C 22,8 C 0,0 km/h (0 Bft)
09.10.2014 12:30 26,3 C 36 % 1016,0 hPa 0,0 l/m 0,0 km/h (0 Bft) S-SO 157 10,0 C 22,8 C 0,0 km/h (0 Bft)
09.10.2014 12:40 27,3 C 36 % 1016,0 hPa 0,0 l/m 0,0 km/h (0 Bft) S-SO 157 10,9 C 22,8 C 0,0 km/h (0 Bft)
09.10.2014 12:50 27,2 C 35 % 1015,8 hPa 0,0 l/m 0,0 km/h (0 Bft) S-SO 157 10,4 C 22,8 C 0,0 km/h (0 Bft)
09.10.2014 13:00 26,4 C 31 % 1015,8 hPa 0,0 l/m 0,0 km/h (0 Bft) S-SO 157 7,9 C 22,8 C 0,0 km/h (0 Bft)
09.10.2014 13:10 28,1 C 30 % 1015,9 hPa 0,0 l/m 0,0 km/h (0 Bft) S-SO 157 8,9 C 22,8 C 0,0 km/h (0 Bft)
09.10.2014 13:20 26,4 C 29 % 1015,9 hPa 0,0 l/m 0,0 km/h (0 Bft) S-SO 157 6,9 C 22,8 C 0,0 km/h (0 Bft)
09.10.2014 13:30 27,2 C 30 % 1015,9 hPa 0,0 l/m 0,0 km/h (0 Bft) S-SO 157 8,1 C 22,8 C 0,0 km/h (0 Bft)
09.10.2014 13:38 27,2 C 30 % 1015,9 hPa 0,0 l/m 0,0 km/h (0 Bft) S-SO 157 8,1 C 22,8 C 0,0 km/h (0 Bft)
09.10.2014 13:40 27,2 C 30 % 1015,9 hPa 0,0 l/m 0,0 km/h (0 Bft) S-SO 157 8,1 C 22,8 C 0,0 km/h (0 Bft)
09.10.2014 13:50 26,7 C 30 % 1015,8 hPa 0,0 l/m 0,0 km/h (0 Bft) S-SO 157 7,7 C 22,8 C 0,0 km/h (0 Bft)
09.10.2014 14:00 26,4 C 30 % 1015,8 hPa 0,0 l/m 0,0 km/h (0 Bft) S-SO 157 7,4 C 22,8 C 0,0 km/h (0 Bft)
09.10.2014 14:10 27,3 C 29 % 1015,9 hPa 0,0 l/m 0,0 km/h (0 Bft) S-SO 157 7,7 C 22,8 C 0,0 km/h (0 Bft)
09.10.2014 14:20 26,4 C 30 % 1015,9 hPa 0,0 l/m 0,0 km/h (0 Bft) S-SO 157 7,4 C 22,8 C 0,0 km/h (0 Bft)
09.10.2014 14:30 26,8 C 29 % 1015,8 hPa 0,0 l/m 0,0 km/h (0 Bft) S-SO 157 7,3 C 22,8 C 0,0 km/h (0 Bft)
09.10.2014 14:40 26,2 C 26 % 1015,8 hPa 0,0 l/m 0,0 km/h (0 Bft) S-SO 157 5,2 C 22,8 C 0,0 km/h (0 Bft)
09.10.2014 14:50 26,0 C 26 % 1015,7 hPa 0,0 l/m 0,0 km/h (0 Bft) S-SO 157 5,0 C 22,8 C 0,0 km/h (0 Bft)
09.10.2014 15:00 26,6 C 28 % 1015,7 hPa 0,0 l/m 0,0 km/h (0 Bft) S-SO 157 6,6 C 22,8 C 0,0 km/h (0 Bft)
09.10.2014 15:10 26,7 C 28 % 1015,8 hPa 0,0 l/m 0,0 km/h (0 Bft) S-SO 157 6,7 C 22,8 C 0,0 km/h (0 Bft)
09.10.2014 15:20 26,9 C 30 % 1015,8 hPa 0,0 l/m 0,0 km/h (0 Bft) S-SO 157 7,8 C 22,8 C 0,0 km/h (0 Bft)
09.10.2014 15:30 27,6 C 28 % 1015,6 hPa 0,0 l/m 0,0 km/h (0 Bft) S-SO 157 7,4 C 22,8 C 0,0 km/h (0 Bft)
09.10.2014 15:40 27,1 C 27 % 1015,6 hPa 0,0 l/m 0,0 km/h (0 Bft) S-SO 157 6,5 C 22,8 C 0,0 km/h (0 Bft)
09.10.2014 15:50 26,1 C 27 % 1015,4 hPa 0,0 l/m 0,0 km/h (0 Bft) S-SO 157 5,6 C 22,8 C 0,0 km/h (0 Bft)
09.10.2014 16:00 26,0 C 30 % 1015,4 hPa 0,0 l/m 0,0 km/h (0 Bft) S-SO 157 7,1 C 22,8 C 0,0 km/h (0 Bft)
09.10.2014 16:10 26,3 C 29 % 1015,2 hPa 0,0 l/m 0,0 km/h (0 Bft) S-SO 157 6,8 C 22,8 C 0,0 km/h (0 Bft)
09.10.2014 16:20 25,7 C 30 % 1015,2 hPa 0,0 l/m 0,0 km/h (0 Bft) S-SO 157 6,8 C 22,8 C 0,0 km/h (0 Bft)
09.10.2014 16:30 25,5 C 30 % 1015,0 hPa 0,0 l/m 0,0 km/h (0 Bft) S-SO 157 6,6 C 22,8 C 0,0 km/h (0 Bft)
09.10.2014 16:38 24,5 C 32 % 1015,0 hPa 0,0 l/m 0,0 km/h (0 Bft) S-SO 157 6,7 C 22,8 C 0,0 km/h (0 Bft)
09.10.2014 16:40 24,5 C 32 % 1015,0 hPa 0,0 l/m 0,0 km/h (0 Bft) S-SO 157 6,7 C 22,8 C 0,0 km/h (0 Bft)
09.10.2014 16:50 22,3 C 38 % 1014,9 hPa 0,0 l/m 0,0 km/h (0 Bft) S-SO 157 7,3 C 22,8 C 0,0 km/h (0 Bft)
09.10.2014 17:00 22,0 C 39 % 1014,9 hPa 0,0 l/m 0,0 km/h (0 Bft) S-SO 157 7,4 C 22,8 C 0,0 km/h (0 Bft)
09.10.2014 17:10 21,6 C 43 % 1014,7 hPa 0,0 l/m 0,0 km/h (0 Bft) S-SO 157 8,5 C 22,8 C 0,0 km/h (0 Bft)
09.10.2014 17:20 21,5 C 46 % 1014,7 hPa 0,0 l/m 0,0 km/h (0 Bft) S-SO 157 9,4 C 22,8 C 0,0 km/h (0 Bft)
09.10.2014 17:30 20,8 C 50 % 1014,6 hPa 0,0 l/m 0,0 km/h (0 Bft) S-SO 157 10,0 C 22,8 C 0,0 km/h (0 Bft)
09.10.2014 17:40 20,8 C 51 % 1014,6 hPa 0,0 l/m 0,0 km/h (0 Bft) S-SO 157 10,3 C 22,8 C 0,0 km/h (0 Bft)
09.10.2014 17:50 20,2 C 53 % 1014,6 hPa 0,0 l/m 0,0 km/h (0 Bft) S-SO 157 10,3 C 22,8 C 0,0 km/h (0 Bft)
09.10.2014 18:00 20,4 C 49 % 1014,6 hPa 0,0 l/m 0,0 km/h (0 Bft) S-SO 157 9,3 C 22,8 C 0,0 km/h (0 Bft)
09.10.2014 18:10 19,2 C 55 % 1014,6 hPa 0,0 l/m 0,0 km/h (0 Bft) S-SO 157 9,9 C 22,8 C 0,0 km/h (0 Bft)
09.10.2014 18:20 18,7 C 59 % 1014,6 hPa 0,0 l/m 0,0 km/h (0 Bft) S-SO 157 10,5 C 22,8 C 0,0 km/h (0 Bft)
09.10.2014 18:30 19,0 C 55 % 1014,6 hPa 0,0 l/m 0,0 km/h (0 Bft) S-SO 157 9,8 C 22,8 C 0,0 km/h (0 Bft)
09.10.2014 18:40 17,5 C 59 % 1014,6 hPa 0,0 l/m 0,0 km/h (0 Bft) S-SO 157 9,4 C 22,8 C 0,0 km/h (0 Bft)
09.10.2014 18:50 17,7 C 60 % 1014,8 hPa 0,0 l/m 0,0 km/h (0 Bft) S-SO 157 9,8 C 22,8 C 0,0 km/h (0 Bft)
09.10.2014 19:00 17,0 C 61 % 1014,8 hPa 0,0 l/m 0,0 km/h (0 Bft) S-SO 157 9,4 C 22,8 C 0,0 km/h (0 Bft)
09.10.2014 19:10 16,7 C 61 % 1014,9 hPa 0,0 l/m 0,0 km/h (0 Bft) S-SO 157 9,1 C 22,8 C 0,0 km/h (0 Bft)
09.10.2014 19:20 16,2 C 60 % 1014,9 hPa 0,0 l/m 0,0 km/h (0 Bft) S-SO 157 8,4 C 22,8 C 0,0 km/h (0 Bft)
09.10.2014 19:30 15,7 C 64 % 1015,0 hPa 0,0 l/m 0,0 km/h (0 Bft) S-SO 157 8,9 C 22,8 C 0,0 km/h (0 Bft)
09.10.2014 19:38 15,8 C 62 % 1015,0 hPa 0,0 l/m 0,0 km/h (0 Bft) S-SO 157 8,5 C 22,8 C 0,0 km/h (0 Bft)
09.10.2014 19:40 15,8 C 62 % 1015,0 hPa 0,0 l/m 0,0 km/h (0 Bft) S-SO 157 8,5 C 22,8 C 0,0 km/h (0 Bft)
09.10.2014 19:50 15,4 C 62 % 1015,1 hPa 0,0 l/m 0,0 km/h (0 Bft) S-SO 157 8,2 C 22,8 C 0,0 km/h (0 Bft)
09.10.2014 20:00 14,1 C 64 % 1015,1 hPa 0,0 l/m 0,0 km/h (0 Bft) S-SO 157 7,4 C 22,8 C 0,0 km/h (0 Bft)
09.10.2014 20:10 15,2 C 62 % 1015,0 hPa 0,0 l/m 0,0 km/h (0 Bft) S-SO 157 8,0 C 22,8 C 0,0 km/h (0 Bft)
09.10.2014 20:20 15,1 C 59 % 1015,0 hPa 0,0 l/m 0,0 km/h (0 Bft) S-SO 157 7,1 C 22,8 C 0,0 km/h (0 Bft)
09.10.2014 20:30 14,8 C 60 % 1015,2 hPa 0,0 l/m 0,0 km/h (0 Bft) S-SO 157 7,1 C 22,8 C 0,0 km/h (0 Bft)
09.10.2014 20:40 14,7 C 62 % 1015,2 hPa 0,0 l/m 0,0 km/h (0 Bft) S-SO 157 7,5 C 22,8 C 0,0 km/h (0 Bft)
09.10.2014 20:50 14,7 C 62 % 1015,4 hPa 0,0 l/m 0,0 km/h (0 Bft) S-SO 157 7,5 C 22,8 C 0,0 km/h (0 Bft)
09.10.2014 21:00 14,3 C 62 % 1015,4 hPa 0,0 l/m 0,0 km/h (0 Bft) S-SO 157 7,1 C 22,8 C 0,0 km/h (0 Bft)
09.10.2014 21:10 14,3 C 62 % 1015,6 hPa 0,0 l/m 0,0 km/h (0 Bft) S-SO 157 7,1 C 22,8 C 0,0 km/h (0 Bft)
09.10.2014 21:20 14,9 C 59 % 1015,6 hPa 0,0 l/m 0,0 km/h (0 Bft) S-SO 157 7,0 C 22,8 C 0,0 km/h (0 Bft)
09.10.2014 21:30 13,5 C 62 % 1015,5 hPa 0,0 l/m 0,0 km/h (0 Bft) S-SO 157 6,4 C 22,8 C 0,0 km/h (0 Bft)
09.10.2014 21:40 12,7 C 69 % 1015,5 hPa 0,0 l/m 0,0 km/h (0 Bft) S-SO 157 7,2 C 22,8 C 0,0 km/h (0 Bft)
09.10.2014 21:50 12,1 C 67 % 1015,8 hPa 0,0 l/m 0,0 km/h (0 Bft) S-SO 157 6,2 C 22,8 C 0,0 km/h (0 Bft)
09.10.2014 22:00 11,8 C 69 % 1015,8 hPa 0,0 l/m 0,0 km/h (0 Bft) S-SO 157 6,3 C 22,8 C 0,0 km/h (0 Bft)
09.10.2014 22:10 13,6 C 65 % 1016,1 hPa 0,0 l/m 0,0 km/h (0 Bft) S-SO 157 7,1 C 22,8 C 0,0 km/h (0 Bft)
09.10.2014 22:20 14,6 C 63 % 1016,1 hPa 0,0 l/m 0,0 km/h (0 Bft) S-SO 157 7,6 C 22,8 C 0,0 km/h (0 Bft)
09.10.2014 22:30 14,8 C 62 % 1016,6 hPa 0,0 l/m 0,0 km/h (0 Bft) S-SO 157 7,6 C 22,8 C 0,0 km/h (0 Bft)
09.10.2014 22:38 15,3 C 62 % 1016,6 hPa 0,0 l/m 0,0 km/h (0 Bft) S-SO 157 8,1 C 22,8 C 0,0 km/h (0 Bft)
09.10.2014 22:40 15,3 C 62 % 1016,6 hPa 0,0 l/m 0,0 km/h (0 Bft) S-SO 157 8,1 C 22,8 C 0,0 km/h (0 Bft)
09.10.2014 22:50 15,4 C 61 % 1016,9 hPa 0,0 l/m 0,0 km/h (0 Bft) S-SO 157 7,9 C 22,8 C 0,0 km/h (0 Bft)
09.10.2014 23:00 15,1 C 61 % 1016,9 hPa 0,0 l/m 0,0 km/h (0 Bft) S-SO 157 7,6 C 22,8 C 0,0 km/h (0 Bft)
09.10.2014 23:10 15,6 C 60 % 1017,1 hPa 0,0 l/m 0,0 km/h (0 Bft) S-SO 157 7,9 C 22,8 C 0,0 km/h (0 Bft)
09.10.2014 23:20 15,9 C 60 % 1017,1 hPa 0,0 l/m 0,0 km/h (0 Bft) S-SO 157 8,1 C 22,8 C 0,0 km/h (0 Bft)
09.10.2014 23:30 15,2 C 60 % 1017,4 hPa 0,0 l/m 0,0 km/h (0 Bft) S-SO 157 7,5 C 22,8 C 0,0 km/h (0 Bft)
09.10.2014 23:40 15,1 C 62 % 1017,4 hPa 0,0 l/m 0,0 km/h (0 Bft) S-SO 157 7,9 C 22,8 C 0,0 km/h (0 Bft)
09.10.2014 23:50 14,0 C 64 % 1017,9 hPa 0,0 l/m 0,0 km/h (0 Bft) S-SO 157 7,3 C 22,8 C 0,0 km/h (0 Bft)
_ Min-Zeit 02:30 14:50 05:20 - 23:50 - - 07:00 23:50 23:50
Minimum _ 11,1 C 26 % 1013,4 hPa - 0,0 km/h (0 Bft) - - 4,4 C 22,8 C 0,0 km/h (0 Bft)
_ Max-Zeit 13:10 02:00 23:50 23:50 23:50 - - 12:40 23:50 23:50
Maximum _ 28,1 C 70 % 1017,9 hPa 0,0 l/m 0,0 km/h
S-SO (0 Bft)
- - 10,9 C 22,8 C 0,0 km/h
S-SO (0 Bft)
Durchschnitt _ 17,4 C 53 % 1015,0 hPa #0,0 l/m 0,0 km/h (0 Bft) - - - 7,0 C 22,8 C 0,0 km/h (0 Bft)